EJU97SJ LKPR-LFBD

Flight info

Callsign EJU97SJ
Flight time 1h 56m
Altitude 36000
Route BALTU DCT DONAD DCT RAPET Z93 KODUK DCT MARZA DCT LOHRE DCT IDOSA DCT TOLVU DCT RAPOR DCT GIMER DCT AHVEC UN857 DISAK DCT ARKIP DCT ARNAV DCT LMG
Aircraft A320/M-SDE2E3FGHIJ1RWXYZ/LB1

Departure

Time 2026-05-07 15:01
Airport Václav Havel Airport Prague (LKPR)

Arrival

Time 2026-05-07 16:58
Airport Bordeaux–Mérignac Airport (LFBD)
Time Latitude Longitude Altitude Speed Heading
2026-05-07 14:26 50.10460 14.26524 1191 ft 0 kts 31°
2026-05-07 14:45 50.10458 14.26522 1190 ft 3 kts 31°
2026-05-07 14:46 50.10436 14.26501 1191 ft 4 kts 14°
2026-05-07 14:46 50.10424 14.26501 1191 ft 1 kts 304°
2026-05-07 14:48 50.10424 14.26500 1191 ft 0 kts 304°
2026-05-07 14:48 50.10429 14.26489 1191 ft 3 kts 304°
2026-05-07 14:49 50.10452 14.26435 1190 ft 9 kts 304°
2026-05-07 14:49 50.10497 14.26332 1188 ft 14 kts 304°
2026-05-07 14:49 50.10517 14.26200 1188 ft 13 kts 234°
2026-05-07 14:49 50.10450 14.26131 1191 ft 11 kts 195°
2026-05-07 14:50 50.10395 14.26196 1192 ft 9 kts 126°
2026-05-07 14:50 50.10365 14.26260 1193 ft 5 kts 126°
2026-05-07 14:50 50.10345 14.26303 1194 ft 6 kts 126°
2026-05-07 14:50 50.10310 14.26376 1195 ft 11 kts 127°
2026-05-07 14:51 50.10256 14.26488 1197 ft 15 kts 127°
2026-05-07 14:51 50.10195 14.26614 1201 ft 15 kts 127°
2026-05-07 14:51 50.10131 14.26743 1205 ft 16 kts 127°
2026-05-07 14:51 50.10063 14.26883 1209 ft 17 kts 127°
2026-05-07 14:52 50.09996 14.27021 1209 ft 15 kts 127°
2026-05-07 14:52 50.09940 14.27137 1210 ft 12 kts 127°
2026-05-07 14:52 50.09896 14.27228 1211 ft 10 kts 127°
2026-05-07 14:52 50.09857 14.27305 1211 ft 8 kts 132°
2026-05-07 14:53 50.09826 14.27359 1212 ft 5 kts 132°
2026-05-07 14:53 50.09807 14.27391 1212 ft 3 kts 133°
2026-05-07 14:53 50.09801 14.27400 1212 ft 0 kts 133°
2026-05-07 14:53 50.09801 14.27401 1212 ft 1 kts 133°
2026-05-07 14:54 50.09768 14.27445 1213 ft 12 kts 139°
2026-05-07 14:54 50.09699 14.27549 1215 ft 13 kts 135°
2026-05-07 14:54 50.09650 14.27625 1218 ft 7 kts 135°
2026-05-07 14:54 50.09630 14.27655 1220 ft 1 kts 135°
2026-05-07 14:55 50.09628 14.27659 1220 ft 0 kts 135°
2026-05-07 14:55 50.09618 14.27673 1221 ft 6 kts 135°
2026-05-07 14:55 50.09585 14.27724 1223 ft 8 kts 135°
2026-05-07 14:55 50.09541 14.27793 1225 ft 9 kts 135°
2026-05-07 14:56 50.09499 14.27858 1228 ft 8 kts 135°
2026-05-07 14:56 50.09450 14.27934 1232 ft 10 kts 135°
2026-05-07 14:56 50.09408 14.27999 1233 ft 7 kts 135°
2026-05-07 14:56 50.09378 14.28044 1233 ft 5 kts 135°
2026-05-07 14:57 50.09351 14.28085 1251 ft 7 kts 135°
2026-05-07 14:57 50.09312 14.28146 1236 ft 9 kts 135°
2026-05-07 14:57 50.09258 14.28229 1246 ft 13 kts 135°
2026-05-07 14:57 50.09167 14.28283 1242 ft 14 kts 194°
2026-05-07 14:58 50.09146 14.28267 1239 ft 0 kts 211°
2026-05-07 14:59 50.09143 14.28265 1240 ft 3 kts 211°
2026-05-07 14:59 50.09108 14.28220 1248 ft 11 kts 227°
2026-05-07 14:59 50.09092 14.28084 1247 ft 16 kts 289°
2026-05-07 15:00 50.09152 14.27944 1237 ft 16 kts 306°
2026-05-07 15:00 50.09206 14.27832 1241 ft 0 kts 307°
2026-05-07 15:00 50.09233 14.27773 1236 ft 25 kts 305°
2026-05-07 15:01 50.09490 14.27242 1217 ft 95 kts 307°
2026-05-07 15:01 50.10001 14.26190 1191 ft 147 kts 307°
2026-05-07 15:01 50.10685 14.24790 1467 ft 168 kts 306°
2026-05-07 15:01 50.11402 14.23352 2253 ft 167 kts 302°
2026-05-07 15:02 50.11876 14.22368 2692 ft 171 kts 303°
2026-05-07 15:02 50.12626 14.20793 3007 ft 192 kts 304°
2026-05-07 15:02 50.13474 14.19012 3285 ft 217 kts 304°
2026-05-07 15:02 50.14425 14.17021 3674 ft 241 kts 304°
2026-05-07 15:03 50.15447 14.14889 4409 ft 248 kts 303°
2026-05-07 15:03 50.16492 14.12717 5244 ft 253 kts 304°
2026-05-07 15:03 50.17556 14.10503 6079 ft 258 kts 303°
2026-05-07 15:03 50.18641 14.08241 6832 ft 263 kts 303°
2026-05-07 15:04 50.19748 14.05928 7595 ft 268 kts 303°
2026-05-07 15:04 50.20861 14.03609 8356 ft 273 kts 304°
2026-05-07 15:04 50.21845 14.01073 9102 ft 275 kts 289°
2026-05-07 15:04 50.22314 13.98144 9857 ft 276 kts 272°
2026-05-07 15:05 50.22208 13.95212 10566 ft 276 kts 256°
2026-05-07 15:05 50.21649 13.92208 10860 ft 296 kts 250°
2026-05-07 15:05 50.20991 13.89079 11043 ft 319 kts 250°
2026-05-07 15:05 50.20255 13.85637 11238 ft 340 kts 250°
2026-05-07 15:06 50.19496 13.82091 11747 ft 348 kts 251°
2026-05-07 15:06 50.18733 13.78496 12430 ft 351 kts 250°
2026-05-07 15:06 50.17961 13.74853 13077 ft 356 kts 250°
2026-05-07 15:06 50.17181 13.71167 13721 ft 360 kts 250°
2026-05-07 15:07 50.16393 13.67448 14324 ft 363 kts 250°
2026-05-07 15:07 50.15605 13.63740 14895 ft 366 kts 250°
2026-05-07 15:07 50.14786 13.59907 15478 ft 370 kts 250°
2026-05-07 15:07 50.13977 13.56129 16025 ft 374 kts 250°
2026-05-07 15:08 50.13136 13.52206 16665 ft 379 kts 250°
2026-05-07 15:08 50.12311 13.48349 17275 ft 382 kts 250°
2026-05-07 15:08 50.11467 13.44404 17844 ft 386 kts 250°
2026-05-07 15:08 50.10614 13.40422 18384 ft 390 kts 250°
2026-05-07 15:09 50.09741 13.36353 18915 ft 391 kts 250°
2026-05-07 15:09 50.09063 13.32311 19497 ft 393 kts 259°
2026-05-07 15:09 50.08819 13.28064 20054 ft 395 kts 266°
2026-05-07 15:09 50.08714 13.23768 20520 ft 398 kts 266°
2026-05-07 15:10 50.08606 13.19435 20974 ft 401 kts 266°
2026-05-07 15:10 50.08495 13.15081 21430 ft 404 kts 266°
2026-05-07 15:10 50.08378 13.10698 21887 ft 406 kts 265°
2026-05-07 15:10 50.08259 13.06305 22368 ft 408 kts 266°
2026-05-07 15:11 50.08197 13.01872 22779 ft 411 kts 271°
2026-05-07 15:11 50.08534 12.97421 23131 ft 417 kts 280°
2026-05-07 15:11 50.09254 12.93027 23556 ft 419 kts 283°
2026-05-07 15:11 50.10004 12.88627 23880 ft 422 kts 285°
2026-05-07 15:12 50.10756 12.84177 24108 ft 427 kts 286°
2026-05-07 15:12 50.11510 12.79682 24410 ft 430 kts 285°
2026-05-07 15:12 50.12265 12.75157 24737 ft 432 kts 285°
2026-05-07 15:12 50.13024 12.70607 25064 ft 434 kts 285°
2026-05-07 15:13 50.13780 12.66043 25375 ft 436 kts 285°
2026-05-07 15:13 50.14538 12.61456 25704 ft 438 kts 285°
2026-05-07 15:13 50.15297 12.56846 26029 ft 440 kts 285°
2026-05-07 15:13 50.16057 12.52221 26371 ft 441 kts 285°
2026-05-07 15:14 50.16820 12.47571 26661 ft 443 kts 285°
2026-05-07 15:14 50.17582 12.42915 26955 ft 444 kts 285°
2026-05-07 15:14 50.18347 12.38239 27250 ft 445 kts 285°
2026-05-07 15:14 50.18926 12.33490 27524 ft 448 kts 277°
2026-05-07 15:15 50.19052 12.28621 27770 ft 451 kts 271°
2026-05-07 15:15 50.19028 12.23721 28011 ft 452 kts 271°
2026-05-07 15:15 50.19007 12.18804 28255 ft 454 kts 271°
2026-05-07 15:15 50.18988 12.13867 28478 ft 456 kts 271°
2026-05-07 15:16 50.18965 12.08913 28737 ft 457 kts 271°
2026-05-07 15:16 50.18939 12.03962 29057 ft 456 kts 271°
2026-05-07 15:16 50.18912 11.99013 29346 ft 456 kts 271°
2026-05-07 15:16 50.18884 11.94039 29520 ft 460 kts 271°
2026-05-07 15:17 50.18850 11.89043 29760 ft 462 kts 271°
2026-05-07 15:17 50.18812 11.84026 30040 ft 462 kts 271°
2026-05-07 15:17 50.18791 11.79012 30299 ft 462 kts 272°
2026-05-07 15:17 50.18829 11.74011 30570 ft 461 kts 272°
2026-05-07 15:18 50.18911 11.69022 30849 ft 459 kts 273°
2026-05-07 15:18 50.19013 11.64050 31132 ft 458 kts 273°
2026-05-07 15:18 50.19112 11.59086 31414 ft 457 kts 272°
2026-05-07 15:18 50.19199 11.54141 31700 ft 456 kts 272°
2026-05-07 15:19 50.19274 11.49210 32010 ft 454 kts 272°
2026-05-07 15:19 50.19337 11.44301 32330 ft 451 kts 272°
2026-05-07 15:19 50.19385 11.39414 32648 ft 450 kts 271°
2026-05-07 15:19 50.19427 11.34542 32950 ft 448 kts 271°
2026-05-07 15:20 50.19472 11.29691 33222 ft 447 kts 271°
2026-05-07 15:20 50.19515 11.24850 33526 ft 446 kts 271°
2026-05-07 15:20 50.19561 11.20018 33822 ft 444 kts 271°
2026-05-07 15:20 50.19608 11.15203 34078 ft 444 kts 271°
2026-05-07 15:21 50.19656 11.10388 34290 ft 444 kts 270°
2026-05-07 15:21 50.19702 11.05580 34521 ft 443 kts 270°
2026-05-07 15:21 50.19738 11.00783 34772 ft 441 kts 270°
2026-05-07 15:21 50.19767 10.96004 35015 ft 440 kts 269°
2026-05-07 15:22 50.19543 10.91252 35190 ft 440 kts 262°
2026-05-07 15:22 50.19148 10.86510 35340 ft 440 kts 262°
2026-05-07 15:22 50.18751 10.81780 35531 ft 440 kts 262°
2026-05-07 15:22 50.18350 10.77046 35707 ft 440 kts 262°
2026-05-07 15:23 50.17950 10.72379 35872 ft 440 kts 262°
2026-05-07 15:23 50.17536 10.67591 36009 ft 440 kts 262°
2026-05-07 15:23 50.16719 10.58153 36046 ft 443 kts 262°
2026-05-07 15:24 50.15898 10.48648 36046 ft 442 kts 262°
2026-05-07 15:24 50.15067 10.39156 36044 ft 442 kts 262°
2026-05-07 15:25 50.14226 10.29663 36049 ft 442 kts 262°
2026-05-07 15:25 50.13376 10.20182 36049 ft 442 kts 262°
2026-05-07 15:26 50.12515 10.10696 36057 ft 442 kts 262°
2026-05-07 15:26 50.11650 10.01214 36056 ft 442 kts 262°
2026-05-07 15:27 50.10774 9.91737 36058 ft 442 kts 262°
2026-05-07 15:27 50.09891 9.82263 36057 ft 442 kts 262°
2026-05-07 15:28 50.08999 9.72785 36056 ft 442 kts 262°
2026-05-07 15:28 50.08102 9.63309 36057 ft 442 kts 261°
2026-05-07 15:29 50.07193 9.53840 36061 ft 442 kts 261°
2026-05-07 15:29 50.06303 9.44305 36067 ft 442 kts 263°
2026-05-07 15:30 50.05598 9.34802 36065 ft 442 kts 264°
2026-05-07 15:30 50.04938 9.25295 36061 ft 442 kts 264°
2026-05-07 15:31 50.04238 9.15864 36065 ft 442 kts 263°
2026-05-07 15:31 50.03498 9.06378 36071 ft 442 kts 263°
2026-05-07 15:32 50.02755 8.96900 36065 ft 441 kts 263°
2026-05-07 15:32 50.02012 8.87423 36071 ft 441 kts 263°
2026-05-07 15:33 50.01267 8.77962 36073 ft 441 kts 263°
2026-05-07 15:33 50.00503 8.68494 36073 ft 441 kts 263°
2026-05-07 15:34 49.99729 8.59039 36072 ft 441 kts 263°
2026-05-07 15:34 49.98949 8.49582 36072 ft 441 kts 263°
2026-05-07 15:35 49.98164 8.40130 36065 ft 441 kts 263°
2026-05-07 15:35 49.97376 8.30691 36067 ft 441 kts 263°
2026-05-07 15:36 49.96578 8.21251 36060 ft 440 kts 262°
2026-05-07 15:36 49.95771 8.11833 36063 ft 440 kts 262°
2026-05-07 15:37 49.94958 8.02414 36062 ft 440 kts 262°
2026-05-07 15:37 49.94133 7.92990 36058 ft 440 kts 262°
2026-05-07 15:38 49.93301 7.83577 36062 ft 440 kts 262°
2026-05-07 15:38 49.92469 7.74179 36052 ft 440 kts 262°
2026-05-07 15:39 49.91625 7.64788 36051 ft 439 kts 262°
2026-05-07 15:39 49.90775 7.55407 36050 ft 439 kts 262°
2026-05-07 15:40 49.89920 7.46038 36057 ft 439 kts 262°
2026-05-07 15:40 49.89051 7.36670 36049 ft 438 kts 262°
2026-05-07 15:41 49.88183 7.27315 36050 ft 438 kts 262°
2026-05-07 15:41 49.87307 7.17965 36045 ft 438 kts 262°
2026-05-07 15:42 49.86423 7.08619 36048 ft 438 kts 262°
2026-05-07 15:42 49.85527 6.99288 36044 ft 438 kts 262°
2026-05-07 15:43 49.84620 6.89960 36041 ft 438 kts 262°
2026-05-07 15:43 49.83724 6.80706 36036 ft 437 kts 262°
2026-05-07 15:44 49.82818 6.71393 36044 ft 437 kts 261°
2026-05-07 15:44 49.81898 6.62099 36046 ft 436 kts 261°
2026-05-07 15:45 49.80965 6.52822 36052 ft 436 kts 261°
2026-05-07 15:45 49.80032 6.43551 36057 ft 436 kts 261°
2026-05-07 15:46 49.78779 6.31232 36064 ft 435 kts 261°
2026-05-07 15:47 49.77829 6.21988 36069 ft 434 kts 261°
2026-05-07 15:47 49.76877 6.12774 36070 ft 434 kts 261°
2026-05-07 15:48 49.75917 6.03560 36067 ft 434 kts 261°
2026-05-07 15:48 49.74950 5.94349 36070 ft 434 kts 261°
2026-05-07 15:49 49.73767 5.85215 36070 ft 434 kts 251°
2026-05-07 15:49 49.71736 5.76441 36068 ft 433 kts 250°
2026-05-07 15:50 49.69693 5.67693 36064 ft 433 kts 250°
2026-05-07 15:50 49.67650 5.58948 36064 ft 433 kts 250°
2026-05-07 15:51 49.65607 5.50216 36063 ft 433 kts 250°
2026-05-07 15:51 49.63553 5.41491 36062 ft 433 kts 250°
2026-05-07 15:52 49.61530 5.32762 36055 ft 432 kts 251°
2026-05-07 15:52 49.59650 5.23965 36060 ft 432 kts 252°
2026-05-07 15:53 49.57912 5.15111 36064 ft 431 kts 255°
2026-05-07 15:53 49.56393 5.06174 36064 ft 431 kts 256°
2026-05-07 15:54 49.54875 4.97234 36066 ft 431 kts 255°
2026-05-07 15:54 49.53311 4.88401 36070 ft 431 kts 254°
2026-05-07 15:55 49.51704 4.79518 36066 ft 431 kts 254°
2026-05-07 15:55 49.50093 4.70641 36066 ft 431 kts 254°
2026-05-07 15:56 49.48479 4.61763 36066 ft 431 kts 254°
2026-05-07 15:56 49.46861 4.52899 36065 ft 431 kts 254°
2026-05-07 15:57 49.45235 4.44044 36065 ft 430 kts 254°
2026-05-07 15:57 49.43610 4.35197 36056 ft 430 kts 254°
2026-05-07 15:58 49.41972 4.26369 36057 ft 430 kts 254°
2026-05-07 15:58 49.40328 4.17537 36058 ft 430 kts 254°
2026-05-07 15:59 49.38679 4.08704 36060 ft 430 kts 254°
2026-05-07 15:59 49.36997 3.99903 36057 ft 430 kts 250°
2026-05-07 16:00 49.34174 3.91861 36047 ft 430 kts 237°
2026-05-07 16:00 49.30851 3.84238 36051 ft 430 kts 237°
2026-05-07 16:01 49.27535 3.76623 36047 ft 430 kts 237°
2026-05-07 16:01 49.24214 3.69010 36032 ft 430 kts 237°
2026-05-07 16:02 49.20890 3.61408 36040 ft 430 kts 237°
2026-05-07 16:02 49.17554 3.53812 36050 ft 430 kts 237°
2026-05-07 16:03 49.14217 3.46234 36051 ft 430 kts 237°
2026-05-07 16:03 49.10882 3.38666 36051 ft 430 kts 237°
2026-05-07 16:04 49.07536 3.31106 36051 ft 430 kts 237°
2026-05-07 16:04 49.04182 3.23556 36051 ft 430 kts 236°
2026-05-07 16:05 49.00824 3.16026 36041 ft 430 kts 236°
2026-05-07 16:05 48.97462 3.08508 36043 ft 429 kts 236°
2026-05-07 16:06 48.94102 3.00996 36042 ft 429 kts 236°
2026-05-07 16:06 48.90737 2.93502 36041 ft 429 kts 236°
2026-05-07 16:07 48.87368 2.86018 36037 ft 429 kts 236°
2026-05-07 16:07 48.83998 2.78551 36042 ft 429 kts 236°
2026-05-07 16:08 48.80624 2.71092 36043 ft 429 kts 236°
2026-05-07 16:08 48.77240 2.63643 36044 ft 429 kts 236°
2026-05-07 16:09 48.73853 2.56208 36049 ft 429 kts 236°
2026-05-07 16:09 48.70464 2.48776 36052 ft 429 kts 236°
2026-05-07 16:10 48.67062 2.41355 36048 ft 429 kts 236°
2026-05-07 16:10 48.63657 2.33939 36054 ft 429 kts 236°
2026-05-07 16:11 48.60235 2.26544 36049 ft 430 kts 233°
2026-05-07 16:11 48.55865 2.20436 36046 ft 432 kts 213°
2026-05-07 16:11 48.53114 2.18321 36029 ft 434 kts 202°
2026-05-07 16:12 48.50297 2.17050 36030 ft 436 kts 194°
2026-05-07 16:12 48.44356 2.15137 36030 ft 437 kts 194°
2026-05-07 16:13 48.38413 2.13226 36022 ft 437 kts 194°
2026-05-07 16:13 48.32468 2.11321 36027 ft 437 kts 194°
2026-05-07 16:14 48.26408 2.10482 36030 ft 442 kts 178°
2026-05-07 16:14 48.20296 2.11707 36019 ft 443 kts 175°
2026-05-07 16:15 48.14183 2.12877 36018 ft 441 kts 181°
2026-05-07 16:15 48.08116 2.12165 36021 ft 437 kts 190°
2026-05-07 16:16 48.02078 2.10991 36027 ft 438 kts 190°
2026-05-07 16:16 47.96031 2.09851 36020 ft 439 kts 190°
2026-05-07 16:17 47.89958 2.08704 36007 ft 441 kts 190°
2026-05-07 16:17 47.83855 2.07527 36009 ft 443 kts 190°
2026-05-07 16:18 47.77735 2.06353 35986 ft 444 kts 190°
2026-05-07 16:18 47.71645 2.05202 36001 ft 444 kts 190°
2026-05-07 16:19 47.65506 2.04048 36010 ft 444 kts 191°
2026-05-07 16:19 47.59637 2.01495 36015 ft 439 kts 204°
2026-05-07 16:20 47.53945 1.98183 36016 ft 439 kts 204°
2026-05-07 16:20 47.48258 1.94894 36023 ft 439 kts 204°
2026-05-07 16:21 47.42564 1.91605 36023 ft 439 kts 204°
2026-05-07 16:21 47.36879 1.88321 36011 ft 439 kts 204°
2026-05-07 16:22 47.31195 1.85049 36012 ft 438 kts 204°
2026-05-07 16:22 47.25515 1.81801 36014 ft 438 kts 204°
2026-05-07 16:23 47.19833 1.78561 36015 ft 438 kts 204°
2026-05-07 16:23 47.14152 1.75344 36008 ft 437 kts 204°
2026-05-07 16:24 47.08473 1.72145 36011 ft 437 kts 203°
2026-05-07 16:24 47.02795 1.68959 36012 ft 437 kts 203°
2026-05-07 16:25 46.97119 1.65783 36013 ft 436 kts 203°
2026-05-07 16:25 46.91451 1.62616 36017 ft 436 kts 203°
2026-05-07 16:26 46.85792 1.59462 36019 ft 435 kts 203°
2026-05-07 16:26 46.80139 1.56310 36018 ft 434 kts 203°
2026-05-07 16:27 46.74495 1.53177 36012 ft 434 kts 203°
2026-05-07 16:27 46.68856 1.50039 36006 ft 434 kts 203°
2026-05-07 16:28 46.63217 1.46919 36001 ft 434 kts 203°
2026-05-07 16:28 46.57572 1.43815 35995 ft 433 kts 203°
2026-05-07 16:29 46.51971 1.40736 35982 ft 433 kts 203°
2026-05-07 16:29 46.46340 1.37639 35988 ft 433 kts 203°
2026-05-07 16:30 46.40709 1.34553 35987 ft 432 kts 203°
2026-05-07 16:30 46.35084 1.31470 35977 ft 432 kts 203°
2026-05-07 16:31 46.29460 1.28401 35977 ft 432 kts 203°
2026-05-07 16:31 46.23830 1.25342 35982 ft 432 kts 203°
2026-05-07 16:32 46.18205 1.22287 35974 ft 432 kts 203°
2026-05-07 16:32 46.13532 1.19748 35975 ft 432 kts 203°
2026-05-07 16:33 46.07916 1.16703 35988 ft 431 kts 202°
2026-05-07 16:33 46.02295 1.13673 35977 ft 431 kts 202°
2026-05-07 16:34 45.96675 1.10654 35992 ft 431 kts 202°
2026-05-07 16:34 45.91062 1.07633 35974 ft 431 kts 202°
2026-05-07 16:35 45.85464 1.04568 35977 ft 429 kts 207°
2026-05-07 16:35 45.80553 0.99849 35971 ft 425 kts 225°
2026-05-07 16:36 45.76868 0.93245 35969 ft 425 kts 234°
2026-05-07 16:36 45.75133 0.89814 35793 ft 426 kts 233°
2026-05-07 16:36 45.73393 0.86387 35541 ft 425 kts 233°
2026-05-07 16:36 45.71651 0.82967 35293 ft 425 kts 233°
2026-05-07 16:37 45.69907 0.79554 35048 ft 425 kts 233°
2026-05-07 16:37 45.68160 0.76148 34811 ft 424 kts 233°
2026-05-07 16:37 45.66414 0.72750 34571 ft 424 kts 233°
2026-05-07 16:37 45.64673 0.69359 34332 ft 423 kts 233°
2026-05-07 16:38 45.62932 0.65967 34090 ft 423 kts 233°
2026-05-07 16:38 45.61192 0.62574 33165 ft 425 kts 233°
2026-05-07 16:38 45.59444 0.59168 32246 ft 425 kts 233°
2026-05-07 16:38 45.57695 0.55769 31323 ft 425 kts 233°
2026-05-07 16:39 45.55941 0.52371 30379 ft 426 kts 233°
2026-05-07 16:39 45.54173 0.48954 29219 ft 430 kts 233°
2026-05-07 16:39 45.52396 0.45516 28169 ft 430 kts 233°
2026-05-07 16:39 45.50621 0.42084 27044 ft 432 kts 233°
2026-05-07 16:40 45.48829 0.38620 25877 ft 436 kts 233°
2026-05-07 16:40 45.47022 0.35130 24730 ft 439 kts 233°
2026-05-07 16:40 45.45203 0.31630 23623 ft 441 kts 233°
2026-05-07 16:40 45.43375 0.28119 22506 ft 440 kts 233°
2026-05-07 16:41 45.41564 0.24642 21709 ft 434 kts 233°
2026-05-07 16:41 45.39777 0.21216 20889 ft 429 kts 233°
2026-05-07 16:41 45.38005 0.17826 20069 ft 425 kts 233°
2026-05-07 16:41 45.36269 0.14504 19270 ft 422 kts 233°
2026-05-07 16:42 45.34524 0.11156 18546 ft 421 kts 233°
2026-05-07 16:42 45.32792 0.07793 17876 ft 421 kts 233°
2026-05-07 16:42 45.31052 0.04396 17220 ft 418 kts 233°
2026-05-07 16:42 45.29352 0.01072 16574 ft 415 kts 233°
2026-05-07 16:43 45.27663 -0.02228 15933 ft 411 kts 233°
2026-05-07 16:43 45.26014 -0.05445 15310 ft 407 kts 233°
2026-05-07 16:43 45.24352 -0.08677 14685 ft 403 kts 233°
2026-05-07 16:43 45.22683 -0.11916 14057 ft 400 kts 233°
2026-05-07 16:44 45.21066 -0.15048 13414 ft 397 kts 233°
2026-05-07 16:44 45.19417 -0.18234 12809 ft 394 kts 233°
2026-05-07 16:44 45.17825 -0.21311 12248 ft 392 kts 233°
2026-05-07 16:44 45.16102 -0.24274 11644 ft 389 kts 226°
2026-05-07 16:45 45.14218 -0.26977 11201 ft 379 kts 226°
2026-05-07 16:45 45.12433 -0.29612 10944 ft 363 kts 231°
2026-05-07 16:45 45.11087 -0.32547 10695 ft 349 kts 244°
2026-05-07 16:45 45.10299 -0.35722 10453 ft 336 kts 257°
2026-05-07 16:46 45.10051 -0.38950 10206 ft 326 kts 270°
2026-05-07 16:46 45.10252 -0.42092 9963 ft 316 kts 276°
2026-05-07 16:46 45.10513 -0.45104 9827 ft 299 kts 276°
2026-05-07 16:46 45.10751 -0.47906 9697 ft 275 kts 276°
2026-05-07 16:47 45.10968 -0.50536 9568 ft 264 kts 276°
2026-05-07 16:47 45.11174 -0.53072 9432 ft 254 kts 276°
2026-05-07 16:47 45.11340 -0.55510 9298 ft 244 kts 270°
2026-05-07 16:47 45.11151 -0.57841 9162 ft 236 kts 255°
2026-05-07 16:48 45.10565 -0.59998 9040 ft 235 kts 242°
2026-05-07 16:48 45.09622 -0.61879 8903 ft 235 kts 228°
2026-05-07 16:48 45.08442 -0.63487 8704 ft 236 kts 224°
2026-05-07 16:48 45.07251 -0.65075 8410 ft 235 kts 224°
2026-05-07 16:49 45.06066 -0.66655 8102 ft 234 kts 224°
2026-05-07 16:49 45.04885 -0.68229 7787 ft 233 kts 224°
2026-05-07 16:49 45.03708 -0.69798 7478 ft 232 kts 224°
2026-05-07 16:49 45.02532 -0.71364 7167 ft 231 kts 224°
2026-05-07 16:50 45.01373 -0.72911 7062 ft 230 kts 224°
2026-05-07 16:50 45.00209 -0.74465 6972 ft 231 kts 224°
2026-05-07 16:50 44.99040 -0.76025 6878 ft 231 kts 225°
2026-05-07 16:50 44.97787 -0.77420 6739 ft 230 kts 211°
2026-05-07 16:51 44.96407 -0.78552 6472 ft 229 kts 211°
2026-05-07 16:51 44.95033 -0.79674 6221 ft 228 kts 211°
2026-05-07 16:51 44.93656 -0.80802 5966 ft 229 kts 211°
2026-05-07 16:51 44.92280 -0.81929 5715 ft 227 kts 210°
2026-05-07 16:52 44.90916 -0.83045 5477 ft 226 kts 210°
2026-05-07 16:52 44.89555 -0.84157 5237 ft 226 kts 210°
2026-05-07 16:52 44.88172 -0.85184 4989 ft 224 kts 199°
2026-05-07 16:52 44.86660 -0.85752 4508 ft 230 kts 192°
2026-05-07 16:53 44.85088 -0.86261 4157 ft 230 kts 190°
2026-05-07 16:53 44.83559 -0.86758 4010 ft 220 kts 190°
2026-05-07 16:53 44.82069 -0.87241 3691 ft 220 kts 191°
2026-05-07 16:53 44.80573 -0.87662 3358 ft 216 kts 179°
2026-05-07 16:54 44.79137 -0.87409 3046 ft 204 kts 157°
2026-05-07 16:54 44.77954 -0.86473 2782 ft 187 kts 137°
2026-05-07 16:54 44.77152 -0.85146 2494 ft 171 kts 118°
2026-05-07 16:54 44.76734 -0.83663 2254 ft 158 kts 101°
2026-05-07 16:55 44.76654 -0.82183 2024 ft 147 kts 86°
2026-05-07 16:55 44.76865 -0.80775 1808 ft 147 kts 70°
2026-05-07 16:55 44.77334 -0.79510 1587 ft 147 kts 56°
2026-05-07 16:55 44.78023 -0.78436 1380 ft 149 kts 47°
2026-05-07 16:56 44.78773 -0.77431 1080 ft 148 kts 47°
2026-05-07 16:56 44.79506 -0.76403 731 ft 149 kts 49°
2026-05-07 16:56 44.80913 -0.74357 430 ft 147 kts 48°
2026-05-07 16:57 44.81631 -0.73329 297 ft 148 kts 48°
2026-05-07 16:57 44.82341 -0.72282 167 ft 137 kts 46°
2026-05-07 16:57 44.82898 -0.71486 166 ft 90 kts 45°
2026-05-07 16:57 44.83234 -0.71005 170 ft 57 kts 45°
2026-05-07 16:58 44.83489 -0.70639 166 ft 37 kts 45°
2026-05-07 16:58 44.83643 -0.70421 163 ft 32 kts 46°
2026-05-07 16:58 44.83744 -0.70270 165 ft 19 kts 47°
2026-05-07 16:58 44.83802 -0.70132 165 ft 16 kts 97°
2026-05-07 16:59 44.83716 -0.70040 164 ft 15 kts 158°
2026-05-07 16:59 44.83626 -0.70011 168 ft 13 kts 196°
2026-05-07 16:59 44.83562 -0.70091 168 ft 12 kts 226°
2026-05-07 16:59 44.83509 -0.70166 167 ft 10 kts 225°
2026-05-07 17:00 44.83460 -0.70234 166 ft 9 kts 225°
2026-05-07 17:00 44.83417 -0.70295 167 ft 8 kts 224°
2026-05-07 17:00 44.83379 -0.70348 167 ft 7 kts 225°
2026-05-07 17:00 44.83346 -0.70395 167 ft 6 kts 225°
2026-05-07 17:01 44.83304 -0.70455 167 ft 12 kts 225°
2026-05-07 17:01 44.83239 -0.70550 168 ft 14 kts 226°
2026-05-07 17:01 44.83176 -0.70640 168 ft 12 kts 225°
2026-05-07 17:01 44.83120 -0.70721 168 ft 11 kts 225°
2026-05-07 17:02 44.83070 -0.70792 168 ft 10 kts 225°
2026-05-07 17:02 44.83025 -0.70855 168 ft 9 kts 225°
2026-05-07 17:02 44.82986 -0.70911 167 ft 8 kts 225°
2026-05-07 17:02 44.82946 -0.70926 167 ft 6 kts 148°
2026-05-07 17:03 44.82928 -0.70869 167 ft 7 kts 107°
2026-05-07 17:03 44.82909 -0.70777 167 ft 11 kts 107°
2026-05-07 17:03 44.82884 -0.70660 168 ft 14 kts 106°
2026-05-07 17:03 44.82862 -0.70521 168 ft 15 kts 85°
2026-05-07 17:04 44.82889 -0.70397 168 ft 12 kts 103°
2026-05-07 17:04 44.82870 -0.70300 168 ft 8 kts 106°
2026-05-07 17:04 44.82853 -0.70219 168 ft 10 kts 106°
2026-05-07 17:04 44.82832 -0.70115 168 ft 11 kts 106°
2026-05-07 17:05 44.82812 -0.70017 168 ft 9 kts 104°
2026-05-07 17:05 44.82838 -0.69976 168 ft 4 kts 18°
2026-05-07 17:05 44.82857 -0.69968 168 ft 0 kts 15°